DECAYED

STARLINK-1511, 45767 (Decayed)

Orbit data source: Space-Track

STARLINK-1511, 45767 was a payload satellite owned by SpaceX/Seattle (US) in LEO that was launched on Sat, 13 Jun 2020 UTC via an FALCON 9 launch vehicle from the Air Force Eastern Test Range (AFETR). Payload-class satellites include a variety of spacecraft equipped with specific instruments for various scientific and technological missions. These include communications satellites like Starlink; space stations such as the ISS; scientific satellites like the Hubble; Earth observation satellites from companies like Planet Labs, Umbra, and HawkEye 360; GPS; miniature CubeSats for education and research; and military/defense satellites.

Not visible in the next 10 days
Identifier
45767, 2020-038AP
Orbit
Decayed
Country
Flag of USUS
Related business
Manufacturer
SpaceX/Seattle
Mission
Decayed Commercial Communications
Bus & Motor
STARLINK, Unknown motor
Mass
260 kg wet, ~248 kg dry
Launch date (UTC)
2020-06-13 (6 years ago)
Launch vehicle
FALCON 9
Launch site
Air Force Eastern Test Range (AFETR)
Object type
Payload
Rocket body
Debris
Shape & HBR
Box + 1 Pan, 10.1 m
Radar Cross Section
13.562 m², Large (>1 m²)

Expand to show TLE details & history
Last TLE update: 1 year ago

TLE from 1 year ago
0 STARLINK-1511
1 45767U 20038AP  24364.31379806  .15771596  12413-4  34534-3 0  9996
2 45767  53.0174 280.5232 0007185 184.2488 268.7642 16.46186639253048
Epoch: 2024-12-29T07:31Z
TLE epoch observation values (Epoch: 2024-12-29T07:31:52.152Z)
Latitude
53.07699°
Longitude
164.17384°
Altitude
155.949 km
Speed
7.819 km/s
True Right ascension
01h 01m 34s
True Declination
52° 53' 47"
Sunlit
Object was in full shadow at epoch
Visualization orbit readout
Latitude
Unknown
Longitude
Unknown
Altitude
Unknown
Speed
Unknown
Apparent Right ascension
Unknown
Apparent Declination
Unknown
Sunlit
N/A
Visualization observer readout
Local Sidereal Time
06:33:44
Azimuth
Unknown
Elevation
Unknown
Doppler factor
Unknown
Orbital elements
Apogee altitude
154.38 km
Perigee altitude
145 km
Semi-major axis
6,527.827 km
Eccentricity
0.00072
Inclination
53.0174°
RAAN
280.5232°
Arg. of periapsis
184.2488°
True anomaly
268.68189°
Mean anomaly
268.7642°
Eccentric anomaly
268.72304°
Mean motion
4.11519 °/min
Orbital period
87.48 mins
BSTAR
0.00034534
Loading maneuver chart data...
Computing Atmospheric mass density...
Loading historical data...
Loading historical data...
Loading historical data...
Loading historical data...
Loading historical data...
Loading historical data...
Loading historical data...

Documentation

Showing up to 5 results
|